This is the latest recevied weather packets stored in our database for station/object OK0BH-6. If no packets are shown the sender has not sent any weather packets the latest 10 day(s).
| Time | Temp. | Humidity | Pressure | Rain* | Wind** | Luminosity | Snow |
|---|---|---|---|---|---|---|---|
| 1787930294 | 29.44° C | 37% | 1014.4 hPa | - | - | - | - |
| 1787929719 | 30° C | 37% | 1014.5 hPa | - | - | - | - |
| 1787929145 | 30° C | 37% | 1014.5 hPa | - | - | - | - |
| 1787928570 | 30° C | 37% | 1014.5 hPa | - | - | - | - |
| 1787927995 | 30° C | 37% | 1014.5 hPa | - | - | - | - |
| 1787927420 | 30° C | 37% | 1014.5 hPa | - | - | - | - |
| 1787926845 | 30° C | 38% | 1014.5 hPa | - | - | - | - |
| 1787926270 | 30° C | 38% | 1014.7 hPa | - | - | - | - |
| 1787925695 | 30° C | 38% | 1014.5 hPa | - | - | - | - |
| 1787925120 | 30° C | 38% | 1014.6 hPa | - | - | - | - |
| 1787924546 | 30° C | 38% | 1014.7 hPa | - | - | - | - |
| 1787923971 | 30° C | 38% | 1014.7 hPa | - | - | - | - |
| 1787923396 | 30° C | 38% | 1014.6 hPa | - | - | - | - |
| 1787922821 | 29.44° C | 39% | 1014.7 hPa | - | - | - | - |
| 1787922246 | 29.44° C | 39% | 1014.8 hPa | - | - | - | - |
| 1787921671 | 29.44° C | 39% | 1015 hPa | - | - | - | - |
| 1787921096 | 28.89° C | 39% | 1015.1 hPa | - | - | - | - |
| 1787920521 | 28.89° C | 40% | 1015.1 hPa | - | - | - | - |
| 1787919947 | 28.33° C | 39% | 1015 hPa | - | - | - | - |
| 1787919372 | 28.33° C | 40% | 1015.3 hPa | - | - | - | - |
| 1787918797 | 27.78° C | 40% | 1015.4 hPa | - | - | - | - |
| 1787918222 | 27.78° C | 40% | 1015.4 hPa | - | - | - | - |
| 1787917647 | 27.22° C | 41% | 1015.3 hPa | - | - | - | - |
| 1787917072 | 27.22° C | 41% | 1015.5 hPa | - | - | - | - |
| 1787916497 | 26.67° C | 41% | 1015.4 hPa | - | - | - | - |
* Rain since midnight (hover to see other rain measurements)
** Current wind speed in m/s (hover to see current wind gust speed)